Location: Bottenau
(48.5138°N, 8.0462°E)
Time: 16:51:26
(UTC+00:00)

Cosmos 1633 - Pass Details

Date: 18 April 2021
Orbit: 461 x 478 km, 82.5° (Epoch: 06 May)

Event Time Altitude Azimuth Distance (km) Brightness Sun altitude
Rises 19:23:32 0° 4° (N) 2,541 6.6 -9.9°
Reaches altitude 10° 19:26:09 10° 23° (NNE) 1,654 5.3 -10.3°
Maximum altitude 19:28:43 18° 69° (ENE) 1,222 4.2 -10.6°
Enters shadow 19:30:12 15° 99° (E) 1,375 4.3 -10.9°
